Flag for U.S.A. Weather past 2 weeks in Monticello, Kentucky, U.S.A.

Now
68 °F

Overcast.


Feels Like: 68 °F
Forecast: 58 / 83 °F
Wind: 5 mph from North

Location: London-Corbin Airport-Magee Field

Current Time: Jul 25, 2014 at 12:55:54 PM

Latest Report: Jul 25, 2014 at 11:53 AM


Visibility: 10 mi

Pressure: 30.10 "Hg

Humidity: 73%

Dew point: 59 °F

Location of MonticelloLocation

Historic Weather in Monticello — Graph

°F

Monticello temperature yesterday

Maximum temperature yesterday: 73 °F (at 11:53 AM)
Minimum temperature yesterday: 63 °F (at 10:53 PM)
Average temperature yesterday: 70 °F

Past Weeks' High & Low Weather Summary

 TemperatureHumidityPressure
High91 °F (Jul 12, 5:53 PM)96% (Jul 25, 3:53 AM)30.20 "Hg (Jul 25, 3:53 AM)
Low55 °F (Jul 17, 4:53 AM)26% (Jul 12, 5:53 PM)29.85 "Hg (Jul 15, 4:53 AM)
Average73 °F73%30.04 "Hg
* Reported Jul 10 10:53 AM — Jul 25 10:53 AM, Monticello, Weather by CustomWeather, © 2014

Note: Actual official high and low records may vary slightly from our data, if they occured in-between our weather recording intervals... More about our weather records

Advertising

Monticello weather history for previous 24 hours

 ConditionsComfort  
Time TempWeatherWind HumidityBarometerVisibility
10:53 AM
Jul 25
66 °FLow clouds.6 mph81%30.10 "Hg9 mi
9:53 AM64 °FFog.7 mph87%30.10 "Hg6 mi
8:53 AM62 °FFog.5 mph90%30.10 "Hg6 mi
8:02 AM61 °FFog.5 mph93%30.11 "Hg3 mi
7:53 AM61 °FFog.5 mph93%30.09 "Hg2 mi
6:53 AM61 °FFog.No wind93%30.06 "Hg0 mi
5:53 AM60 °FFog.No wind93%30.06 "Hg0 mi
4:53 AM59 °FFog.3 mph93%30.04 "Hg0 mi
3:53 AM59 °FFog.3 mph96%30.04 "Hg0 mi
2:53 AM59 °FFog.No wind93%30.04 "Hg0 mi
1:53 AM60 °FFog.No wind93%30.04 "Hg0 mi
12:53 AM60 °FFog.No wind93%30.05 "Hg1 mi
11:53 PM
Jul 24
63 °FFog.No wind90%30.05 "Hg5 mi
10:53 PM63 °FFog.No wind90%30.04 "Hg6 mi
9:53 PM65 °FClear.No wind87%30.03 "Hg8 mi
8:53 PM68 °FSunny.No wind78%30.01 "Hg10 mi
7:53 PM71 °FSunny.6 mph71%30.00 "Hg10 mi
6:53 PM72 °FPartly sunny.6 mph68%30.01 "Hg10 mi
5:53 PM71 °FMore clouds than sun.7 mph71%30.01 "Hg10 mi
4:53 PM70 °FMostly cloudy.10 mph73%30.01 "Hg10 mi
3:53 PM71 °FMostly cloudy.9 mph76%30.00 "Hg10 mi
2:53 PM71 °FOvercast.12 mph78%29.99 "Hg10 mi
1:53 PM70 °FLow clouds.12 mph84%29.98 "Hg10 mi
12:53 PM71 °FLow clouds.8 mph84%29.99 "Hg9 mi
12:03 PM71 °FHeavy rain. Fog.10 mph87%30.01 "Hg1 mi
Weather by CustomWeather, © 2014

See weather overviewHow to use our weather pages